Location: Unspecified
(0.0000°N, 0.0000°E)
Time: 10:11:24

AO-7 - Pass Details

Date: 08 December 2017
Orbit: 1440 x 1459 km, 101.7° (Epoch: 23 March)

Event Time Altitude Azimuth Distance (km) Brightness Sun altitude
Exits shadow 01:44:05 11° 78° (ENE) 3,502 ? -54.5°
Maximum altitude 01:48:01 15° 107° (ESE) 3,172 ? -53.7°
Drops below altitude 10° 01:52:24 10° 140° (SE) 3,580 ? -52.9°
Sets 01:56:42 0° 160° (SSE) 4,558 ? -52.1°
